Track STARLINK-3508 now! 10-day predictions STARLINK-3508 is classified as:
1 51862U 22022L 22187.66667824 .00047941 00000-0 30123-2 0 9991 2 51862 53.2153 273.6817 0001808 49.6702 124.1679 15.08811132 20565